TimeCDT,TemperatureF,Dew PointF,Humidity,Sea Level PressureIn,VisibilityMPH,Wind Direction,Wind SpeedMPH,Gust SpeedMPH,PrecipitationIn,Events,Conditions,WindDirDegrees,DateUTC
12:53 AM,45.0,21.9,40,30.16,10.0,South,21.9,28.8,N/A,,Clear,170,2013-03-27 05:53:00
1:53 AM,43.0,23.0,45,30.15,10.0,South,21.9,29.9,N/A,,Clear,180,2013-03-27 06:53:00
2:53 AM,42.1,23.0,47,30.14,9.0,South,21.9,28.8,N/A,,Clear,180,2013-03-27 07:53:00
3:53 AM,42.1,23.0,47,30.13,9.0,South,18.4,-,N/A,,Clear,180,2013-03-27 08:53:00
4:53 AM,41.0,24.1,51,30.12,10.0,South,18.4,25.3,N/A,,Clear,170,2013-03-27 09:53:00
5:53 AM,42.1,24.1,49,30.11,10.0,South,18.4,-,N/A,,Clear,180,2013-03-27 10:53:00
6:53 AM,42.1,24.1,49,30.12,10.0,South,19.6,-,N/A,,Clear,180,2013-03-27 11:53:00
7:53 AM,42.1,24.1,49,30.13,10.0,South,18.4,26.5,N/A,,Clear,180,2013-03-27 12:53:00
8:53 AM,42.1,25.0,51,30.13,10.0,South,20.7,28.8,N/A,,Clear,180,2013-03-27 13:53:00
9:53 AM,46.9,27.0,46,30.12,10.0,South,26.5,34.5,N/A,,Clear,190,2013-03-27 14:53:00
10:53 AM,53.1,28.9,40,30.12,10.0,South,20.7,26.5,N/A,,Clear,190,2013-03-27 15:53:00
11:53 AM,57.9,30.9,36,30.10,10.0,SSW,25.3,35.7,N/A,,Clear,200,2013-03-27 16:53:00
12:53 PM,62.1,33.1,34,30.07,10.0,South,25.3,33.4,N/A,,Clear,190,2013-03-27 17:53:00
1:53 PM,64.9,35.1,33,30.04,10.0,South,23.0,33.4,N/A,,Clear,190,2013-03-27 18:53:00
2:53 PM,69.1,36.0,30,30.02,10.0,SSW,20.7,29.9,N/A,,Clear,200,2013-03-27 19:53:00
3:53 PM,71.1,37.0,29,29.99,10.0,SSW,19.6,27.6,N/A,,Clear,210,2013-03-27 20:53:00
4:53 PM,73.0,37.0,27,29.98,10.0,SW,15.0,26.5,N/A,,Clear,220,2013-03-27 21:53:00
5:53 PM,73.0,37.9,28,29.97,10.0,South,13.8,21.9,N/A,,Clear,190,2013-03-27 22:53:00
6:53 PM,70.0,39.0,32,29.98,10.0,South,10.4,-,N/A,,Clear,190,2013-03-27 23:53:00
7:53 PM,60.1,39.9,47,30.00,10.0,SSE,9.2,-,N/A,,Clear,160,2013-03-28 00:53:00
8:53 PM,57.9,39.0,49,30.01,10.0,SSE,10.4,-,N/A,,Clear,150,2013-03-28 01:53:00
9:53 PM,57.9,37.9,47,30.02,10.0,SSE,9.2,-,N/A,,Clear,150,2013-03-28 02:53:00
10:53 PM,60.1,37.9,44,30.03,10.0,South,17.3,-,N/A,,Clear,170,2013-03-28 03:53:00
11:53 PM,59.0,39.0,48,30.03,10.0,South,16.1,-,N/A,,Clear,170,2013-03-28 04:53:00